Weather History for KTYS - August, 2014

Change the Weather History Date:

Sunday, August 3, 2014

  Actual Average Record
Temperature  
Mean Temperature 73 °F 78 °F  
Max Temperature 83 °F 88 °F 99 °F (2011)
Min Temperature 62 °F 69 °F 58 °F (1976)
Degree Days  
Heating Degree Days 0 0  
Month to date heating degree days 0 0  
Since 1 June heating degree days 0 4  
Since 1 July heating degree days 0 0  
Cooling Degree Days 8 13  
Month to date cooling degree days 27 39  
Year to date cooling degree days 879 923  
Since 1 June cooling degree days 674 761  
Growing Degree Days 22 (Base 50)    
Moisture  
Dew Point 64 °F    
Average Humidity 74    
Maximum Humidity 100    
Minimum Humidity 47    
Precipitation  
Precipitation T in 0.12 in 2.94 in (1942)
Month to date precipitation 0.24 0.37  
Year to date precipitation 25.49 30.70  
Snow  
Snow 0.00 in 0.00 in - ()
Month to date snowfall 0.0 0.0  
Since 1 June snowfall 0.0 0.0  
Since 1 July snowfall 0.0 0.0  
Snow Depth 0.00 in    
Sea Level Pressure  
Sea Level Pressure 30.10 in    
Wind  
Wind Speed 5 mph (NE)    
Max Wind Speed 14 mph    
Max Gust Speed 18 mph    
Visibility 6 miles    
Events Fog , Thunderstorm    
T = Trace of Precipitation, MM = Missing Value Source: NWS Daily Summary

Daily Weather History Graph

Daily Weather History Graph

Search for Another Location

Airport or City:

Trip Planner

Search our weather history database for the weather conditions in past years. The results will help you decide how hot, cold, wet, or windy it might be!

Date:

Astronomy

Aug. 03, 2014 Rise Set
Actual Time 6:45 AM EDT 8:38 PM EDT
Civil Twilight 6:17 AM EDT 9:06 PM EDT
Nautical Twilight 5:43 AM EDT 9:40 PM EDT
Astronomical Twilight 5:06 AM EDT 10:16 PM EDT
Moon 1:49 PM EDT (8/3) 12:12 AM EDT (8/3)
Length of Visible Light 14h 49m
Length of Day
13h 53m
Waxing Crescent, 46% of the Moon is Illuminated
Aug 3
Waxing Crescent
Aug 3
First Quarter
Aug 10
Full
Aug 17
Last Quarter
Aug 25
New

Hourly Weather History & Observations

Time (EDT) Temp. Heat Index Dew Point Humidity Pressure Visibility Wind Dir Wind Speed Gust Speed Precip Events Conditions
12:13 AM 68.0 °F - 66.0 °F 93% 30.11 in 10.0 mi SSE 4.6 mph - N/A Thunderstorm Overcast
12:35 AM 68.0 °F - 66.0 °F 93% 30.12 in 10.0 mi SSE 6.9 mph - N/A   Overcast
12:53 AM 68.0 °F - 66.0 °F 93% 30.08 in 8.0 mi ENE 4.6 mph - N/A   Overcast
1:53 AM 68.0 °F - 64.9 °F 90% 30.07 in 9.0 mi Calm Calm - N/A   Overcast
2:53 AM 66.0 °F - 64.9 °F 96% 30.07 in 5.0 mi NNE 5.8 mph - N/A   Overcast
3:09 AM 66.9 °F - 66.0 °F 97% 30.10 in 5.0 mi NNE 5.8 mph - N/A   Overcast
3:53 AM 66.2 °F - 64.4 °F 94% 30.11 in 6.0 mi Calm Calm - N/A   Overcast
4:53 AM 66.0 °F - 64.0 °F 93% 30.08 in 8.0 mi Calm Calm - N/A   Mostly Cloudy
6:36 AM 63.0 °F - 63.0 °F 100% 30.12 in 2.0 mi Calm Calm - N/A   Partly Cloudy
6:53 AM 63.0 °F - 63.0 °F 100% 30.09 in 1.5 mi Calm Calm - N/A   Partly Cloudy
7:01 AM 63.0 °F - 62.1 °F 97% 30.13 in 1.0 mi Calm Calm - N/A   Partly Cloudy
7:18 AM 64.0 °F - 64.0 °F 100% 30.13 in 0.2 mi Calm Calm - N/A Fog Fog
7:25 AM 64.0 °F - 64.0 °F 100% 30.13 in 0.2 mi Calm Calm - N/A Fog Fog
7:35 AM 64.0 °F - 64.0 °F 100% 30.13 in 0.2 mi Calm Calm - N/A Fog Fog
7:53 AM 64.0 °F - 64.0 °F 100% 30.11 in 0.2 mi ENE 3.5 mph - N/A Fog Fog
8:00 AM 64.9 °F - 64.0 °F 97% 30.14 in 0.8 mi NNE 3.5 mph - N/A   Overcast
8:11 AM 64.9 °F - 64.9 °F 100% 30.14 in 0.2 mi NNE 3.5 mph - N/A Fog Fog
8:26 AM 64.9 °F - 64.9 °F 100% 30.14 in 0.2 mi Calm Calm - N/A Fog Fog
8:31 AM 64.9 °F - 64.9 °F 100% 30.14 in 0.5 mi Calm Calm - N/A Fog Fog
8:53 AM 64.9 °F - 64.9 °F 100% 30.12 in 0.5 mi East 3.5 mph - N/A Fog Fog
8:59 AM 66.0 °F - 66.0 °F 100% 30.14 in 0.2 mi Calm Calm - N/A Fog Fog
9:13 AM 66.0 °F - 66.0 °F 100% 30.14 in 1.0 mi NNE 3.5 mph - N/A   Overcast
9:26 AM 66.9 °F - 66.0 °F 97% 30.14 in 2.0 mi Calm Calm - N/A   Overcast
9:35 AM 68.0 °F - 66.0 °F 93% 30.14 in 5.0 mi Calm Calm - N/A   Mostly Cloudy
9:53 AM 69.1 °F - 66.0 °F 90% 30.12 in 9.0 mi Calm Calm - N/A   Mostly Cloudy
10:53 AM 73.9 °F - 64.9 °F 73% 30.11 in 10.0 mi Variable 3.5 mph - N/A   Partly Cloudy
11:53 AM 78.1 °F - 66.0 °F 66% 30.10 in 10.0 mi North 4.6 mph - N/A   Partly Cloudy
12:53 PM 79.0 °F - 64.9 °F 62% 30.10 in 10.0 mi East 8.1 mph - N/A   Partly Cloudy
1:53 PM 81.0 °F 81.9 °F 62.1 °F 52% 30.09 in 10.0 mi North 8.1 mph - N/A   Partly Cloudy
2:53 PM 82.9 °F 83.7 °F 62.1 °F 49% 30.08 in 10.0 mi North 8.1 mph - N/A   Partly Cloudy
3:53 PM 82.0 °F 83.1 °F 63.0 °F 52% 30.06 in 10.0 mi ENE 9.2 mph - 0.00 in   Partly Cloudy
4:53 PM 82.9 °F 83.7 °F 62.1 °F 49% 30.04 in 10.0 mi NE 11.5 mph - N/A   Scattered Clouds
5:53 PM 82.0 °F 82.7 °F 61.0 °F 49% 30.03 in 10.0 mi ENE 9.2 mph - N/A   Scattered Clouds
6:53 PM 81.0 °F 81.7 °F 61.0 °F 50% 30.03 in 10.0 mi East 8.1 mph - N/A   Scattered Clouds
7:53 PM 79.0 °F - 62.1 °F 56% 30.04 in 10.0 mi ENE 6.9 mph - N/A   Partly Cloudy
8:53 PM 75.9 °F - 63.0 °F 64% 30.04 in 10.0 mi NNE 4.6 mph - N/A   Partly Cloudy
9:53 PM 73.4 °F - 62.6 °F 69% 30.08 in 10.0 mi NNE 6.9 mph - N/A   Clear
10:53 PM 70.0 °F - 64.0 °F 81% 30.07 in 9.0 mi NE 3.5 mph - N/A   Clear
11:53 PM 68.0 °F - 63.0 °F 84% 30.06 in 9.0 mi NE 3.5 mph - N/A   Clear